Weather in Vysokiy Kholm

Russia / Smolensk Oblast     54°42′38″N   31°26′56″E
temp.,
°C
wind,
m/s
gust,
m/s
humid.,
%
clouds,
%
prec.,
mm/h
press.,
hPa
HPBL,
m
16 april, fri
fri1600:00+9ne71591100 0.1 1014528
03:00+9ne61393100 0.6 1013486
06:00+8ene61394100 2.4 1014515
09:00+10e61084100 2.7 1015753
12:00+12ene6978100 0.4 10151120
15:00+12ene6107981 1.9 1016795
18:00+11ene81185100 2.3 1016667
21:00+9ene51188100 3.9 1017417
17 april, sat
sat1700:00+8ene3994100 0.2 1017274
03:00+7ene399785 0.6 1018229
06:00+6e359624 0.1 1019108
09:00+10e35795 0.1 1020438
12:00+13ne4567100 0.0 10201013
15:00+12ne6875100 0.1 10201058
18:00+10nne51385100 3.2 1019894
21:00+11ne71580100 3.3 1018661
18 april, sun
sun1800:00+9ne6148189 0.0 1018484
03:00+7ne7157916 0.0 1018498
06:00+6ne61277100 0.0 1019637
09:00+8ene687899 0.0 1020884
12:00+8ene4672100 0.0 10211163
15:00+9ne5674100 0.1 1021828
18:00+8ne6777100 0.0 1021755
21:00+5ne598493 0.0 1022511
19 april, mon
mon1900:00+5ne588997 0.0 1022479
03:00+5ne4887100 0.0 1022460
06:00+5ne5987100 0.0 1021504
09:00+6ne51087100 0.0 1021758
12:00+8ne6977100 0.1 1021966
15:00+10ne6870100 0.2 10191283
18:00+8ne61082100 0.5 10191252
21:00+6ne61090100 0.7 1018978
20 april, tue
tue2000:00+6ene61190100 0.3 1016915
03:00+7e71389100 0.8 1015845
06:00+6ene71293100 0.4 1013685
09:00+6ene71387100 0.6 1013915
12:00+7ene81384100 0.0 1010943
15:00+6ne91589100 1.8 10051103
18:00+3ne91796100 6.9 1002988
21:00+2ne71698100 12.9 1000771